TimeCDT,TemperatureF,Dew PointF,Humidity,Sea Level PressureIn,VisibilityMPH,Wind Direction,Wind SpeedMPH,Gust SpeedMPH,PrecipitationIn,Events,Conditions,WindDirDegrees,DateUTC
12:12 AM,75.2,71.6,89,29.97,10.0,East,4.6,-,N/A,,Clear,80,2013-07-09 05:12:00
12:33 AM,73.4,71.6,94,29.97,10.0,East,3.5,-,N/A,,Clear,80,2013-07-09 05:33:00
12:53 AM,73.4,71.6,94,29.97,10.0,East,3.5,-,N/A,,Clear,80,2013-07-09 05:53:00
1:12 AM,71.6,69.8,94,29.96,10.0,East,3.5,-,N/A,,Clear,100,2013-07-09 06:12:00
1:33 AM,71.6,71.6,100,29.95,10.0,East,4.6,-,N/A,,Clear,80,2013-07-09 06:33:00
1:53 AM,71.6,71.6,100,29.95,10.0,East,4.6,-,N/A,,Clear,90,2013-07-09 06:53:00
2:13 AM,71.6,69.8,94,29.93,7.0,ESE,4.6,-,N/A,,Clear,120,2013-07-09 07:13:00
2:33 AM,71.6,71.6,100,29.92,10.0,SE,6.9,-,N/A,,Clear,130,2013-07-09 07:33:00
2:53 AM,73.4,71.6,94,29.92,10.0,SE,6.9,-,N/A,,Clear,130,2013-07-09 07:53:00
3:13 AM,73.4,71.6,94,29.91,10.0,ESE,5.8,-,N/A,,Scattered Clouds,120,2013-07-09 08:13:00
3:33 AM,73.4,71.6,94,29.91,10.0,ESE,6.9,-,N/A,,Scattered Clouds,120,2013-07-09 08:33:00
3:53 AM,73.4,71.6,94,29.90,10.0,ESE,8.1,-,N/A,,Scattered Clouds,120,2013-07-09 08:53:00
4:13 AM,73.4,71.6,94,29.89,10.0,ESE,6.9,-,N/A,,Scattered Clouds,120,2013-07-09 09:13:00
4:33 AM,73.4,71.6,94,29.90,10.0,ESE,5.8,-,N/A,,Clear,120,2013-07-09 09:33:00
4:53 AM,73.4,71.6,94,29.88,10.0,ESE,5.8,-,N/A,,Clear,120,2013-07-09 09:53:00
5:13 AM,73.4,71.6,94,29.87,7.0,SE,6.9,-,N/A,,Clear,130,2013-07-09 10:13:00
5:33 AM,73.4,71.6,94,29.86,10.0,SE,6.9,-,N/A,Thunderstorm,Clear,130,2013-07-09 10:33:00
5:53 AM,73.4,71.6,94,29.85,10.0,SE,5.8,-,N/A,,Clear,130,2013-07-09 10:53:00
6:13 AM,73.4,71.6,94,29.83,10.0,SE,6.9,-,N/A,Thunderstorm,Clear,130,2013-07-09 11:13:00
6:32 AM,73.4,71.6,94,29.83,10.0,SE,5.8,-,N/A,,Scattered Clouds,140,2013-07-09 11:32:00
6:53 AM,73.4,69.8,88,29.89,5.0,WNW,28.8,42.6,N/A,Rain-Thunderstorm,Thunderstorms and Rain,290,2013-07-09 11:53:00
7:13 AM,68.0,68.0,100,29.88,4.0,NW,4.6,21.9,N/A,Rain-Thunderstorm,Thunderstorms and Rain,310,2013-07-09 12:13:00
7:33 AM,68.0,68.0,100,29.83,4.0,ENE,3.5,-,N/A,Rain-Thunderstorm,Light Thunderstorms and Rain,70,2013-07-09 12:33:00
7:53 AM,68.0,68.0,100,29.78,10.0,East,13.8,-,N/A,Rain,Light Rain,100,2013-07-09 12:53:00
8:13 AM,68.0,68.0,100,29.76,10.0,ESE,9.2,-,N/A,,Light Drizzle,120,2013-07-09 13:13:00
8:33 AM,69.8,69.8,100,29.77,10.0,West,4.6,-,N/A,Rain,Light Rain,270,2013-07-09 13:33:00
8:53 AM,69.8,69.8,100,29.80,10.0,WSW,6.9,-,N/A,,Clear,250,2013-07-09 13:53:00
9:13 AM,71.6,71.6,100,29.82,10.0,WSW,6.9,-,N/A,,Clear,240,2013-07-09 14:13:00
9:33 AM,71.6,71.6,100,29.83,10.0,SW,5.8,-,N/A,,Mostly Cloudy,220,2013-07-09 14:33:00
9:53 AM,71.6,69.8,94,29.84,10.0,SW,4.6,-,N/A,,Mostly Cloudy,230,2013-07-09 14:53:00
10:13 AM,73.4,71.6,94,29.85,10.0,WSW,6.9,-,N/A,,Mostly Cloudy,250,2013-07-09 15:13:00
10:33 AM,73.4,69.8,88,29.86,10.0,WSW,8.1,-,N/A,,Mostly Cloudy,250,2013-07-09 15:33:00
10:53 AM,73.4,69.8,88,29.86,10.0,West,10.4,-,N/A,,Overcast,260,2013-07-09 15:53:00
11:13 AM,73.4,69.8,88,29.87,10.0,West,8.1,-,N/A,,Overcast,280,2013-07-09 16:13:00
11:32 AM,73.4,69.8,88,29.87,10.0,West,10.4,-,N/A,,Overcast,260,2013-07-09 16:32:00
11:53 AM,75.2,69.8,83,29.87,10.0,West,13.8,19.6,N/A,,Overcast,280,2013-07-09 16:53:00
12:13 PM,75.2,71.6,89,29.87,10.0,West,15.0,20.7,N/A,,Overcast,270,2013-07-09 17:13:00
12:33 PM,78.8,71.6,78,29.86,10.0,West,12.7,20.7,N/A,,Mostly Cloudy,270,2013-07-09 17:33:00
12:53 PM,80.6,71.6,74,29.86,10.0,West,12.7,19.6,N/A,,Scattered Clouds,280,2013-07-09 17:53:00
1:12 PM,80.6,71.6,74,29.86,10.0,West,15.0,23.0,N/A,,Scattered Clouds,270,2013-07-09 18:12:00
1:33 PM,82.4,73.4,74,29.85,10.0,West,16.1,19.6,N/A,,Scattered Clouds,270,2013-07-09 18:33:00
1:52 PM,82.4,71.6,70,29.86,10.0,West,17.3,21.9,N/A,,Scattered Clouds,270,2013-07-09 18:52:00
2:13 PM,82.4,71.6,70,29.85,10.0,West,11.5,18.4,N/A,,Mostly Cloudy,270,2013-07-09 19:13:00
2:33 PM,82.4,71.6,70,29.85,10.0,West,15.0,23.0,N/A,,Mostly Cloudy,270,2013-07-09 19:33:00
2:52 PM,84.2,71.6,66,29.85,10.0,West,13.8,26.5,N/A,,Scattered Clouds,280,2013-07-09 19:52:00
3:13 PM,84.2,71.6,66,29.85,10.0,West,15.0,23.0,N/A,,Scattered Clouds,280,2013-07-09 20:13:00
3:33 PM,84.2,71.6,66,29.86,10.0,West,16.1,23.0,N/A,,Scattered Clouds,280,2013-07-09 20:33:00
3:52 PM,84.2,71.6,66,29.86,10.0,West,13.8,19.6,N/A,,Scattered Clouds,280,2013-07-09 20:52:00
4:13 PM,84.2,71.6,66,29.86,10.0,West,13.8,18.4,N/A,,Scattered Clouds,280,2013-07-09 21:13:00
4:33 PM,84.2,71.6,66,29.86,10.0,West,15.0,20.7,N/A,,Scattered Clouds,270,2013-07-09 21:33:00
4:52 PM,84.2,71.6,66,29.87,10.0,West,13.8,18.4,N/A,,Scattered Clouds,280,2013-07-09 21:52:00
5:13 PM,84.2,69.8,62,29.87,10.0,West,12.7,19.6,N/A,,Scattered Clouds,280,2013-07-09 22:13:00
5:33 PM,84.2,71.6,66,29.87,10.0,West,12.7,23.0,N/A,,Scattered Clouds,280,2013-07-09 22:33:00
5:52 PM,84.2,69.8,62,29.87,10.0,WNW,13.8,23.0,N/A,,Scattered Clouds,290,2013-07-09 22:52:00
6:13 PM,82.4,69.8,66,29.88,10.0,WNW,13.8,18.4,N/A,,Scattered Clouds,290,2013-07-09 23:13:00
6:33 PM,82.4,69.8,66,29.89,10.0,WNW,13.8,21.9,N/A,,Clear,290,2013-07-09 23:33:00
6:52 PM,82.4,69.8,66,29.90,10.0,WNW,10.4,-,N/A,,Clear,290,2013-07-09 23:52:00
7:13 PM,82.4,69.8,66,29.90,10.0,WNW,11.5,-,N/A,,Clear,290,2013-07-10 00:13:00
7:32 PM,80.6,69.8,70,29.90,10.0,WNW,10.4,20.7,N/A,,Clear,290,2013-07-10 00:32:00
7:53 PM,80.6,68.0,65,29.91,10.0,WNW,12.7,-,N/A,,Clear,290,2013-07-10 00:53:00
8:13 PM,80.6,69.8,70,29.91,10.0,West,10.4,-,N/A,,Clear,280,2013-07-10 01:13:00
8:32 PM,78.8,69.8,74,29.91,10.0,WNW,5.8,-,N/A,,Clear,290,2013-07-10 01:32:00
8:53 PM,78.8,69.8,74,29.91,10.0,WNW,11.5,-,N/A,,Clear,300,2013-07-10 01:53:00
9:12 PM,77.0,69.8,78,29.92,10.0,NW,10.4,17.3,N/A,,Scattered Clouds,320,2013-07-10 02:12:00
9:33 PM,75.2,68.0,78,29.93,10.0,NW,11.5,17.3,N/A,,Clear,310,2013-07-10 02:33:00
9:53 PM,73.4,66.2,78,29.95,10.0,NW,10.4,-,N/A,,Clear,310,2013-07-10 02:53:00
10:12 PM,73.4,66.2,78,29.95,10.0,WNW,11.5,21.9,N/A,,Clear,300,2013-07-10 03:12:00
10:33 PM,71.6,66.2,83,29.96,10.0,WNW,12.7,17.3,N/A,,Clear,300,2013-07-10 03:33:00
10:53 PM,71.6,66.2,83,29.96,10.0,NW,10.4,17.3,N/A,,Clear,310,2013-07-10 03:53:00
11:12 PM,69.8,66.2,88,29.97,10.0,NW,10.4,16.1,N/A,,Clear,310,2013-07-10 04:12:00
11:33 PM,69.8,64.4,83,29.98,10.0,NW,10.4,-,N/A,,Scattered Clouds,310,2013-07-10 04:33:00
11:53 PM,69.8,64.4,83,29.99,10.0,NW,10.4,-,N/A,,Scattered Clouds,320,2013-07-10 04:53:00